Powrót do katalogu

FENGYUN 1C DEB

AktywnyPO
NORAD 29841·DEBRIS·🇨🇳 China

Wystrzelony May 10, 1999 z Taiyuan Satellite Launch Center

Loading…

Następne Przeloty (najbliższe 24 godziny)

TLE

ŚwieżeSource: Space-Track

Epoka: Sep 14, 2026, 09:02 UTC

1 29841U 99025EK  26257.37658963  .00000465  00000-0  11279-3 0  9996
2 29841  98.8522 221.6460 0197659 225.9688 295.9086 14.47261728 33061

Śledź FENGYUN 1C DEB w czasie rzeczywistym z AllMySat

Download on the App Store